contact:dominique.lefevre@mio.osupytheas.fr, maurice.libes@osupytheas.fr, didier.mallarino@osupytheas.fr
Project:EMSO http://www.emso-fr.org/EMSO-France
Depth: 2436.0 m
Title:EMSO Ligure Ouest : Data MII capteur AQUADOPP
Date,Latitude,Longitude,X_East,Y_North,Z_Up,Amplitude_X,Amplitude_Y,Amplitude_Z,Batterie,SoundSpeed,Heading,Pitch,Roll,Pressure,TIS,Speed,Direction
, degrees North, degrees East, m.s-1, m.s-1,m.s-1, 1, 1, 1, Volt, m.s-1, degree, degree, degree, dbar, degree_C, m.s-1, degree
2019-05-25T00:02:32,42.805,6.029,0.04,-0.014,0.02,98.0,102.0,96.0,13.4,1505.3,326.6,-0.8,1.9,2470.209,13.33,0.042,109.3
2019-05-25T00:05:33,42.805,6.029,0.015,-0.014,0.024,99.0,103.0,97.0,13.3,1505.3,327.0,-0.8,1.9,2470.192,13.33,0.02,133.0
2019-05-25T00:08:34,42.805,6.029,0.01,-0.013,0.023,99.0,102.0,97.0,13.4,1505.3,326.5,-0.8,1.9,2470.195,13.33,0.016,142.4
2019-05-25T00:11:35,42.805,6.029,0.031,-0.014,0.015,98.0,103.0,97.0,13.3,1505.3,324.5,-0.8,1.9,2470.209,13.33,0.034,114.3
2019-05-25T00:14:36,42.805,6.029,0.014,-0.002,-0.001,98.0,102.0,96.0,13.3,1505.3,324.4,-0.8,1.9,2470.213,13.33,0.014,98.1
2019-05-25T00:17:37,42.805,6.029,0.003,-0.011,-0.001,100.0,105.0,95.0,13.4,1505.3,325.5,-0.8,1.9,2470.207,13.33,0.011,164.7
2019-05-25T00:20:38,42.805,6.029,-0.01,-0.022,-0.049,100.0,103.0,96.0,13.4,1505.3,326.9,-0.8,1.9,2470.158,13.33,0.024,204.4
2019-05-25T00:23:39,42.805,6.029,-0.007,-0.031,-0.001,99.0,103.0,97.0,13.4,1505.3,322.9,-0.8,1.9,2470.201,13.33,0.031,192.7
2019-05-25T00:26:40,42.805,6.029,0.007,-0.024,-0.032,99.0,105.0,96.0,13.4,1505.3,327.9,-0.9,1.8,2470.212,13.33,0.025,163.7
2019-05-25T00:29:41,42.805,6.029,-0.029,-0.006,-0.015,99.0,104.0,97.0,13.3,1505.3,326.2,-0.8,1.9,2470.183,13.33,0.029,258.3
2019-05-25T00:32:42,42.805,6.029,0.013,-0.03,-0.005,99.0,104.0,96.0,13.3,1505.3,324.3,-0.8,1.9,2470.176,13.33,0.032,156.6
2019-05-25T00:35:43,42.805,6.029,-0.014,-0.022,-0.04,101.0,105.0,96.0,13.4,1505.3,324.5,-0.8,1.9,2470.207,13.33,0.026,212.5
2019-05-25T00:38:44,42.805,6.029,0.053,-0.011,0.044,99.0,105.0,97.0,13.4,1505.3,324.5,-0.8,1.9,2470.222,13.33,0.054,101.7
2019-05-25T00:41:45,42.805,6.029,0.018,-0.022,0.047,99.0,104.0,97.0,13.4,1505.3,327.0,-0.8,1.9,2470.208,13.33,0.028,140.7
2019-05-25T00:44:46,42.805,6.029,-0.033,-0.032,-0.039,100.0,103.0,97.0,13.3,1505.3,323.4,-0.8,1.9,2470.165,13.33,0.045,225.9
2019-05-25T00:47:47,42.805,6.029,-0.026,-0.029,-0.04,100.0,102.0,97.0,13.4,1505.3,327.6,-0.8,1.8,2470.164,13.33,0.038,221.9
2019-05-25T00:50:48,42.805,6.029,-0.012,-0.005,-0.015,100.0,103.0,97.0,13.3,1505.3,327.9,-0.8,1.9,2470.132,13.33,0.013,247.4
2019-05-25T00:53:49,42.805,6.029,-0.033,-0.025,-0.066,99.0,103.0,97.0,13.3,1505.3,324.5,-0.8,1.9,2470.194,13.33,0.041,232.9
2019-05-25T00:56:50,42.805,6.029,0.005,-0.019,0.008,100.0,102.0,95.0,13.4,1505.3,327.0,-0.8,1.9,2470.192,13.33,0.019,165.3
2019-05-25T00:59:51,42.805,6.029,0.024,-0.017,0.018,100.0,104.0,97.0,13.3,1505.3,326.3,-0.8,1.9,2470.211,13.33,0.029,125.3
2019-05-25T01:02:52,42.805,6.029,0.019,-0.023,-0.008,100.0,104.0,96.0,13.3,1505.3,323.7,-0.8,1.9,2470.196,13.33,0.029,140.4
2019-05-25T01:05:53,42.805,6.029,0.017,-0.017,0.011,100.0,105.0,96.0,13.3,1505.3,325.9,-0.8,1.9,2470.157,13.33,0.024,135.0
2019-05-25T01:08:54,42.805,6.029,0.045,0.002,0.037,99.0,104.0,97.0,13.3,1505.3,327.9,-0.8,1.9,2470.169,13.33,0.045,87.5
2019-05-25T01:11:55,42.805,6.029,0.024,-0.006,0.026,100.0,104.0,98.0,13.3,1505.3,324.6,-0.8,1.9,2470.158,13.33,0.024,104.0
2019-05-25T01:14:56,42.805,6.029,0.026,0.0,-0.012,100.0,104.0,95.0,13.4,1505.3,326.8,-0.8,1.8,2470.164,13.33,0.026,90.0
2019-05-25T01:17:57,42.805,6.029,0.022,-0.01,-0.025,98.0,104.0,96.0,13.3,1505.3,324.9,-0.8,1.9,2470.163,13.33,0.024,114.4
2019-05-25T01:20:58,42.805,6.029,0.024,-0.007,0.017,100.0,104.0,101.0,13.4,1505.3,324.7,-0.8,1.9,2470.167,13.33,0.025,106.3
2019-05-25T01:23:59,42.805,6.029,0.004,-0.014,0.009,100.0,105.0,99.0,13.4,1505.3,328.1,-0.9,1.9,2470.189,13.33,0.014,164.1
2019-05-25T01:27:00,42.805,6.029,-0.001,-0.008,-0.031,99.0,105.0,94.0,13.4,1505.3,325.7,-0.8,1.9,2470.164,13.33,0.008,187.1
2019-05-25T01:30:01,42.805,6.029,-0.011,-0.032,-0.011,99.0,106.0,96.0,13.4,1505.3,323.3,-0.8,1.9,2470.183,13.33,0.033,199.0
2019-05-25T01:33:02,42.805,6.029,0.001,-0.004,0.0,100.0,106.0,96.0,13.3,1505.4,325.6,-0.8,1.9,2470.156,13.34,0.004,166.0
2019-05-25T01:36:03,42.805,6.029,-0.003,-0.001,0.007,99.0,106.0,98.0,13.3,1505.4,328.5,-0.8,1.9,2470.173,13.34,0.003,251.6
2019-05-25T01:39:04,42.805,6.029,-0.003,-0.005,-0.019,99.0,104.0,96.0,13.3,1505.4,325.0,-0.8,1.9,2470.153,13.34,0.005,211.0
2019-05-25T01:42:05,42.805,6.029,0.012,0.008,0.012,97.0,106.0,97.0,13.4,1505.4,325.7,-0.8,1.8,2470.141,13.34,0.014,56.3
2019-05-25T01:45:06,42.805,6.029,-0.027,-0.009,-0.013,98.0,104.0,98.0,13.4,1505.4,323.7,-0.8,1.9,2470.145,13.34,0.028,251.6
2019-05-25T01:48:07,42.805,6.029,-0.016,-0.003,-0.018,100.0,104.0,96.0,13.4,1505.4,327.8,-0.8,1.9,2470.119,13.34,0.016,259.4
2019-05-25T01:51:08,42.805,6.029,0.032,-0.01,0.029,100.0,104.0,97.0,13.4,1505.4,328.0,-0.8,1.9,2470.124,13.34,0.033,107.4
2019-05-25T01:54:09,42.805,6.029,0.026,-0.012,0.026,99.0,104.0,95.0,13.4,1505.4,326.3,-0.8,1.9,2470.16,13.34,0.028,114.8
2019-05-25T01:57:10,42.805,6.029,0.043,-0.005,0.047,98.0,103.0,97.0,13.4,1505.4,325.6,-0.8,1.9,2470.144,13.34,0.043,96.6
2019-05-25T02:00:11,42.805,6.029,0.028,-0.01,0.02,98.0,102.0,96.0,13.4,1505.4,325.9,-0.8,1.8,2470.152,13.34,0.029,109.6
2019-05-25T02:03:12,42.805,6.029,0.003,-0.008,0.015,103.0,102.0,101.0,13.3,1505.4,323.0,-0.8,1.9,2470.123,13.34,0.008,159.4
2019-05-25T02:06:13,42.805,6.029,0.011,-0.008,0.004,97.0,104.0,95.0,13.3,1505.4,324.6,-0.8,1.9,2470.111,13.35,0.013,126.0
2019-05-25T02:09:14,42.805,6.029,0.031,-0.01,0.049,99.0,106.0,99.0,13.4,1505.4,328.2,-0.8,1.8,2470.136,13.35,0.032,107.9
2019-05-25T02:12:15,42.805,6.029,0.015,0.0,0.003,97.0,104.0,97.0,13.3,1505.4,326.0,-0.8,1.9,2470.148,13.35,0.015,90.0
2019-05-25T02:15:16,42.805,6.029,0.03,0.011,-0.018,99.0,105.0,95.0,13.4,1505.4,326.0,-0.8,1.9,2470.192,13.35,0.031,69.9
2019-05-25T02:18:17,42.805,6.029,-0.017,-0.018,-0.035,98.0,103.0,97.0,13.4,1505.4,323.9,-0.8,1.9,2470.136,13.35,0.024,223.4
2019-05-25T02:21:18,42.805,6.029,-0.009,-0.006,-0.067,98.0,102.0,95.0,13.4,1505.4,325.5,-0.8,1.8,2470.13,13.35,0.01,236.3
2019-05-25T02:24:19,42.805,6.029,0.034,-0.007,0.024,99.0,103.0,97.0,13.4,1505.4,326.5,-0.8,1.9,2470.132,13.35,0.034,101.6
2019-05-25T02:27:20,42.805,6.029,-0.005,-0.012,-0.006,100.0,110.0,97.0,13.4,1505.4,323.3,-0.8,1.9,2470.137,13.35,0.013,202.6
2019-05-25T02:30:21,42.805,6.029,0.014,-0.015,0.01,105.0,103.0,96.0,13.4,1505.4,327.1,-0.8,1.9,2470.104,13.35,0.02,137.0
2019-05-25T02:33:22,42.805,6.029,-0.015,-0.017,-0.01,99.0,103.0,97.0,13.4,1505.4,324.0,-0.8,1.9,2470.148,13.35,0.022,221.4
2019-05-25T02:36:23,42.805,6.029,-0.004,0.015,0.001,99.0,103.0,98.0,13.4,1505.4,326.6,-0.8,1.9,2470.091,13.35,0.015,345.1
2019-05-25T02:39:24,42.805,6.029,0.01,0.001,-0.015,96.0,102.0,97.0,13.4,1505.4,324.0,-0.8,1.9,2470.108,13.35,0.01,84.3
2019-05-25T02:42:25,42.805,6.029,0.0,-0.004,-0.017,101.0,104.0,97.0,13.4,1505.4,324.7,-0.8,1.9,2470.112,13.35,0.004,180.0
2019-05-25T02:45:26,42.805,6.029,0.0,0.004,0.014,100.0,103.0,95.0,13.3,1505.4,328.5,-0.8,1.9,2470.118,13.35,0.004,0.0
2019-05-25T02:48:27,42.805,6.029,-0.003,-0.007,-0.004,100.0,104.0,97.0,13.4,1505.4,326.3,-0.8,1.9,2470.134,13.35,0.007,203.2
2019-05-25T02:51:28,42.805,6.029,-0.02,0.011,-0.013,101.0,103.0,95.0,13.4,1505.4,324.0,-0.8,1.9,2470.117,13.35,0.022,298.8
2019-05-25T02:54:29,42.805,6.029,-0.006,0.025,0.037,101.0,103.0,95.0,13.3,1505.4,326.4,-0.8,1.8,2470.15,13.35,0.025,346.5
2019-05-25T02:57:30,42.805,6.029,-0.023,-0.004,0.015,98.0,103.0,96.0,13.4,1505.4,326.3,-0.8,1.8,2470.161,13.35,0.023,260.1
2019-05-25T03:00:31,42.805,6.029,0.005,0.001,0.017,102.0,103.0,95.0,13.4,1505.4,323.4,-0.8,1.9,2470.153,13.35,0.005,78.7
2019-05-25T03:03:32,42.805,6.029,0.018,0.0,0.027,99.0,102.0,96.0,13.4,1505.4,326.7,-0.8,1.9,2470.094,13.35,0.018,90.0
2019-05-25T03:06:33,42.805,6.029,-0.004,-0.006,0.001,100.0,103.0,95.0,13.4,1505.4,325.3,-0.8,1.9,2470.145,13.35,0.007,213.7
2019-05-25T03:09:34,42.805,6.029,0.0,0.007,-0.013,98.0,103.0,95.0,13.3,1505.4,325.9,-0.8,1.9,2470.121,13.35,0.007,0.0
2019-05-25T03:12:35,42.805,6.029,0.023,-0.006,0.023,98.0,103.0,97.0,13.4,1505.4,324.8,-0.8,1.9,2470.127,13.35,0.023,104.6
2019-05-25T03:15:36,42.805,6.029,-0.021,0.01,-0.01,99.0,104.0,96.0,13.4,1505.4,326.7,-0.8,1.9,2470.071,13.35,0.023,295.5
2019-05-25T03:18:37,42.805,6.029,-0.022,0.003,-0.023,103.0,103.0,96.0,13.4,1505.4,324.0,-0.8,1.9,2470.117,13.35,0.022,277.8
2019-05-25T03:21:38,42.805,6.029,0.007,0.008,0.0,100.0,102.0,96.0,13.4,1505.4,325.6,-0.8,1.9,2470.155,13.35,0.01,41.2
2019-05-25T03:24:39,42.805,6.029,0.0,-0.001,0.007,101.0,105.0,95.0,13.4,1505.4,323.4,-0.8,1.8,2470.132,13.35,0.001,180.0
2019-05-25T03:27:40,42.805,6.029,-0.006,0.0,0.004,98.0,104.0,97.0,13.4,1505.4,327.9,-0.8,1.9,2470.117,13.35,0.006,270.0
2019-05-25T03:30:41,42.805,6.029,0.02,0.0,0.002,101.0,103.0,96.0,13.3,1505.4,325.6,-0.8,1.9,2470.094,13.35,0.02,90.0
2019-05-25T03:33:42,42.805,6.029,-0.013,-0.001,-0.022,101.0,104.0,96.0,13.4,1505.4,324.7,-0.8,1.9,2470.106,13.35,0.013,265.6
2019-05-25T03:36:43,42.805,6.029,-0.004,-0.01,-0.005,97.0,104.0,102.0,13.3,1505.4,326.3,-0.8,1.9,2470.118,13.35,0.01,201.8
2019-05-25T03:39:44,42.805,6.029,0.013,-0.001,0.01,99.0,103.0,97.0,13.4,1505.4,327.1,-0.8,1.9,2470.1,13.35,0.013,94.4
2019-05-25T03:42:45,42.805,6.029,-0.015,0.003,-0.008,97.0,103.0,98.0,13.4,1505.4,324.8,-0.8,1.9,2470.095,13.35,0.015,281.3
2019-05-25T03:45:46,42.805,6.029,-0.004,0.012,-0.033,99.0,103.0,98.0,13.3,1505.4,327.2,-0.8,1.9,2470.094,13.35,0.012,341.6
2019-05-25T03:48:47,42.805,6.029,0.009,0.006,-0.003,99.0,103.0,95.0,13.4,1505.4,325.2,-0.8,1.9,2470.091,13.35,0.01,56.3
2019-05-25T03:51:48,42.805,6.029,0.011,0.0,0.017,99.0,103.0,97.0,13.4,1505.4,323.6,-0.8,1.8,2470.096,13.35,0.011,90.0
2019-05-25T03:54:49,42.805,6.029,-0.002,0.009,0.006,99.0,104.0,96.0,13.4,1505.4,325.2,-0.8,1.9,2470.134,13.35,0.009,347.5
2019-05-25T03:57:50,42.805,6.029,0.022,0.004,0.011,99.0,102.0,96.0,13.4,1505.4,324.6,-0.8,1.8,2470.125,13.35,0.022,79.7
2019-05-25T04:00:51,42.805,6.029,0.037,-0.009,0.026,99.0,103.0,99.0,13.4,1505.4,325.8,-0.7,1.9,2470.154,13.35,0.038,103.7
2019-05-25T04:03:52,42.805,6.029,0.007,-0.001,0.005,100.0,104.0,96.0,13.4,1505.4,328.2,-0.8,1.9,2470.094,13.35,0.007,98.1
2019-05-25T04:06:53,42.805,6.029,0.012,-0.018,0.003,99.0,103.0,97.0,13.4,1505.4,324.2,-0.8,1.9,2470.101,13.35,0.021,146.3
2019-05-25T04:09:54,42.805,6.029,0.02,0.001,0.015,99.0,104.0,96.0,13.4,1505.4,326.4,-0.8,1.9,2470.145,13.35,0.02,87.1
2019-05-25T04:12:55,42.805,6.029,0.018,-0.012,0.0,100.0,108.0,95.0,13.4,1505.4,324.4,-0.8,1.9,2470.116,13.35,0.021,123.7
2019-05-25T04:15:56,42.805,6.029,0.025,0.022,0.035,99.0,104.0,97.0,13.3,1505.4,324.4,-0.8,1.9,2470.095,13.35,0.033,48.7
2019-05-25T04:18:57,42.805,6.029,0.024,0.021,-0.001,99.0,104.0,96.0,13.4,1505.4,326.7,-0.8,1.9,2470.109,13.35,0.031,48.8
2019-05-25T04:21:58,42.805,6.029,0.02,0.01,0.032,99.0,102.0,96.0,13.4,1505.4,324.8,-0.8,1.9,2470.072,13.35,0.022,63.4
2019-05-25T04:24:59,42.805,6.029,0.018,0.004,0.006,99.0,104.0,95.0,13.4,1505.4,325.1,-0.8,1.9,2470.149,13.35,0.018,77.5
2019-05-25T04:28:00,42.805,6.029,-0.007,-0.014,-0.021,99.0,105.0,97.0,13.3,1505.4,326.0,-0.8,1.9,2470.09,13.35,0.015,206.6
2019-05-25T04:31:01,42.805,6.029,-0.005,0.004,0.001,100.0,106.0,98.0,13.3,1505.4,323.6,-0.8,1.9,2470.067,13.35,0.006,308.7
2019-05-25T04:34:02,42.805,6.029,0.01,0.03,-0.006,99.0,106.0,95.0,13.4,1505.4,327.8,-0.8,1.9,2470.099,13.35,0.031,18.4
2019-05-25T04:37:03,42.805,6.029,-0.003,0.004,0.021,99.0,105.0,96.0,13.4,1505.4,324.5,-0.8,1.9,2470.096,13.35,0.005,323.1
2019-05-25T04:40:04,42.805,6.029,-0.001,-0.014,-0.022,99.0,106.0,97.0,13.4,1505.4,326.7,-0.8,1.9,2470.065,13.35,0.014,184.1
2019-05-25T04:43:05,42.805,6.029,-0.027,0.018,-0.032,98.0,109.0,96.0,13.4,1505.4,325.1,-0.8,1.9,2470.115,13.35,0.032,303.7
2019-05-25T04:46:06,42.805,6.029,-0.017,0.003,-0.004,99.0,104.0,96.0,13.4,1505.4,327.8,-0.8,1.9,2470.048,13.35,0.017,280.0
2019-05-25T04:49:07,42.805,6.029,-0.003,0.0,-0.015,98.0,105.0,96.0,13.4,1505.4,324.8,-0.8,1.8,2470.121,13.35,0.003,270.0
2019-05-25T04:52:08,42.805,6.029,0.004,0.017,0.007,98.0,105.0,95.0,13.4,1505.4,326.5,-0.8,1.9,2470.051,13.35,0.017,13.2
2019-05-25T04:55:09,42.805,6.029,0.001,0.003,-0.016,99.0,108.0,96.0,13.4,1505.4,323.9,-0.8,1.9,2470.103,13.35,0.003,18.4
2019-05-25T04:58:10,42.805,6.029,0.0,0.019,-0.002,99.0,106.0,97.0,13.4,1505.4,328.1,-0.7,1.9,2470.108,13.35,0.019,0.0
2019-05-25T05:01:11,42.805,6.029,-0.003,0.003,-0.01,101.0,106.0,96.0,13.3,1505.4,325.3,-0.8,1.9,2470.126,13.35,0.004,315.0
2019-05-25T05:04:12,42.805,6.029,0.009,0.015,-0.035,99.0,106.0,96.0,13.4,1505.4,327.1,-0.8,1.9,2470.062,13.35,0.017,31.0
2019-05-25T05:07:13,42.805,6.029,-0.013,0.012,-0.007,99.0,106.0,97.0,13.4,1505.4,326.4,-0.8,1.9,2470.063,13.34,0.017,312.7
2019-05-25T05:10:14,42.805,6.029,0.008,0.012,-0.009,99.0,110.0,96.0,13.4,1505.4,327.1,-0.8,1.9,2470.06,13.34,0.014,33.7
2019-05-25T05:13:15,42.805,6.029,0.01,0.006,0.018,100.0,106.0,96.0,13.3,1505.4,326.5,-0.8,1.9,2470.115,13.34,0.011,59.0
2019-05-25T05:16:16,42.805,6.029,0.0,0.001,-0.066,98.0,108.0,97.0,13.3,1505.4,326.4,-0.8,1.9,2470.091,13.34,0.001,0.0
2019-05-25T05:19:17,42.805,6.029,-0.007,0.013,-0.013,99.0,107.0,98.0,13.4,1505.4,324.3,-0.8,1.9,2470.106,13.34,0.014,331.7
2019-05-25T05:22:18,42.805,6.029,-0.002,0.019,-0.007,100.0,106.0,97.0,13.4,1505.4,323.1,-0.8,1.9,2470.077,13.34,0.019,354.0
2019-05-25T05:25:19,42.805,6.029,0.007,0.0,-0.023,97.0,112.0,94.0,13.4,1505.4,323.2,-0.8,1.9,2470.115,13.34,0.007,90.0
2019-05-25T05:28:20,42.805,6.029,-0.029,-0.001,-0.044,100.0,107.0,95.0,13.4,1505.4,323.5,-0.8,1.8,2470.051,13.34,0.029,268.0
2019-05-25T05:31:21,42.805,6.029,-0.038,0.023,-0.039,99.0,108.0,96.0,13.4,1505.4,325.3,-0.8,1.8,2470.11,13.34,0.044,301.2
2019-05-25T05:34:22,42.805,6.029,0.004,-0.005,-0.02,99.0,108.0,95.0,13.4,1505.4,328.4,-0.8,1.9,2470.11,13.34,0.006,141.3
2019-05-25T05:37:23,42.805,6.029,0.005,0.021,-0.015,100.0,106.0,100.0,13.4,1505.4,328.5,-0.8,1.9,2470.074,13.34,0.021,13.4
2019-05-25T05:40:24,42.805,6.029,0.021,0.004,-0.026,98.0,107.0,95.0,13.4,1505.4,326.8,-0.8,1.8,2470.095,13.34,0.021,79.2
2019-05-25T05:43:25,42.805,6.029,0.0,0.013,0.016,98.0,109.0,97.0,13.4,1505.4,325.1,-0.8,1.9,2470.067,13.34,0.013,0.0
2019-05-25T05:46:26,42.805,6.029,-0.037,-0.013,-0.029,99.0,108.0,96.0,13.3,1505.4,326.7,-0.8,1.8,2470.079,13.34,0.039,250.6
2019-05-25T05:49:27,42.805,6.029,0.015,-0.004,-0.012,99.0,107.0,96.0,13.4,1505.4,323.9,-0.8,1.9,2470.029,13.34,0.015,104.9
2019-05-25T05:52:28,42.805,6.029,-0.014,0.029,-0.004,98.0,108.0,96.0,13.3,1505.4,323.4,-0.8,1.9,2470.086,13.34,0.032,334.2
2019-05-25T05:55:29,42.805,6.029,-0.014,-0.014,-0.028,101.0,108.0,96.0,13.3,1505.3,325.7,-0.8,1.8,2470.082,13.33,0.019,225.0
2019-05-25T05:58:30,42.805,6.029,-0.005,0.009,-0.057,101.0,106.0,96.0,13.4,1505.3,326.2,-0.8,1.9,2470.082,13.33,0.01,330.9
2019-05-25T06:01:31,42.805,6.029,0.0,0.011,-0.021,99.0,107.0,97.0,13.4,1505.3,325.4,-0.8,1.9,2470.081,13.33,0.011,0.0
2019-05-25T06:04:32,42.805,6.029,0.003,0.017,-0.025,99.0,107.0,95.0,13.4,1505.3,325.3,-0.8,1.9,2470.095,13.33,0.017,10.0
2019-05-25T06:07:33,42.805,6.029,-0.017,0.009,-0.003,97.0,108.0,96.0,13.3,1505.3,324.6,-0.8,1.9,2470.09,13.33,0.019,297.9
2019-05-25T06:10:34,42.805,6.029,-0.009,0.005,-0.005,98.0,107.0,97.0,13.4,1505.3,323.5,-0.8,1.9,2470.074,13.33,0.01,299.1
2019-05-25T06:13:35,42.805,6.029,0.008,-0.002,0.007,98.0,106.0,96.0,13.3,1505.3,325.9,-0.8,1.9,2470.074,13.33,0.008,104.0
2019-05-25T06:16:36,42.805,6.029,0.004,0.036,-0.006,98.0,107.0,96.0,13.4,1505.3,327.6,-0.8,1.9,2470.063,13.33,0.036,6.3
2019-05-25T06:19:37,42.805,6.029,0.026,0.02,-0.012,99.0,108.0,97.0,13.4,1505.3,327.3,-0.8,1.9,2470.142,13.33,0.032,52.4
2019-05-25T06:22:38,42.805,6.029,-0.018,0.011,-0.018,99.0,108.0,97.0,13.4,1505.3,327.6,-0.8,1.8,2470.049,13.33,0.021,301.4
2019-05-25T06:25:39,42.805,6.029,-0.022,0.012,-0.032,99.0,109.0,97.0,13.3,1505.3,327.9,-0.8,1.9,2470.1,13.33,0.025,298.6
2019-05-25T06:28:40,42.805,6.029,0.001,0.0,-0.003,99.0,108.0,97.0,13.4,1505.3,328.4,-0.8,1.9,2470.106,13.33,0.001,90.0
2019-05-25T06:31:41,42.805,6.029,0.012,0.008,0.007,99.0,108.0,97.0,13.4,1505.3,327.1,-0.8,1.9,2470.106,13.33,0.014,56.3
2019-05-25T06:34:42,42.805,6.029,0.036,-0.014,-0.033,98.0,108.0,98.0,13.3,1505.3,326.7,-0.8,1.9,2470.058,13.33,0.038,111.2
2019-05-25T06:37:43,42.805,6.029,0.034,0.018,0.046,97.0,108.0,96.0,13.3,1505.3,324.7,-0.8,1.9,2470.093,13.33,0.038,62.1
2019-05-25T06:40:44,42.805,6.029,0.01,0.008,-0.007,98.0,105.0,97.0,13.4,1505.3,324.2,-0.8,1.9,2470.019,13.33,0.012,51.3
2019-05-25T06:43:45,42.805,6.029,0.037,0.007,0.023,99.0,108.0,94.0,13.3,1505.3,324.7,-0.8,1.9,2470.09,13.32,0.037,79.3
2019-05-25T06:46:46,42.805,6.029,0.041,0.018,0.014,100.0,107.0,95.0,13.3,1505.3,325.6,-0.8,1.8,2470.082,13.32,0.044,66.3
2019-05-25T06:49:47,42.805,6.029,0.033,0.023,0.028,99.0,108.0,96.0,13.4,1505.3,326.8,-0.8,1.9,2470.054,13.32,0.04,55.1
2019-05-25T06:52:48,42.805,6.029,0.041,0.0,0.026,99.0,108.0,97.0,13.4,1505.3,327.0,-0.8,1.9,2470.082,13.32,0.041,90.0
2019-05-25T06:55:49,42.805,6.029,0.027,0.032,0.02,99.0,108.0,96.0,13.4,1505.3,326.3,-0.8,1.9,2470.047,13.32,0.041,40.2
2019-05-25T06:58:50,42.805,6.029,0.035,0.02,0.007,98.0,109.0,96.0,13.4,1505.3,325.9,-0.8,1.9,2470.075,13.32,0.04,60.3
2019-05-25T07:01:51,42.805,6.029,0.038,-0.003,-0.028,99.0,110.0,95.0,13.4,1505.3,326.2,-0.8,1.9,2470.064,13.32,0.038,94.5
2019-05-25T07:04:52,42.805,6.029,0.034,0.03,0.022,100.0,108.0,96.0,13.4,1505.3,326.0,-0.8,1.8,2470.055,13.32,0.045,48.6
2019-05-25T07:07:53,42.805,6.029,0.037,0.017,0.039,98.0,110.0,95.0,13.4,1505.3,324.9,-0.8,1.9,2470.103,13.32,0.04,65.3
2019-05-25T07:10:54,42.805,6.029,0.036,0.007,0.005,98.0,110.0,96.0,13.3,1505.3,323.8,-0.8,1.9,2470.081,13.32,0.036,79.0
2019-05-25T07:13:55,42.805,6.029,0.022,0.007,0.037,99.0,107.0,97.0,13.4,1505.3,322.8,-0.8,1.9,2470.059,13.32,0.023,72.4
2019-05-25T07:16:56,42.805,6.029,0.013,0.012,-0.003,98.0,108.0,95.0,13.4,1505.3,324.1,-0.7,1.9,2470.13,13.32,0.017,47.3
2019-05-25T07:19:57,42.805,6.029,0.044,0.004,0.011,99.0,108.0,97.0,13.4,1505.3,323.2,-0.8,1.9,2470.093,13.33,0.044,84.8
2019-05-25T07:22:58,42.805,6.029,0.024,0.023,0.019,99.0,108.0,95.0,13.4,1505.3,323.3,-0.8,1.9,2470.074,13.32,0.033,46.2
2019-05-25T07:25:59,42.805,6.029,0.006,0.014,0.025,99.0,110.0,96.0,13.4,1505.3,324.1,-0.7,1.9,2470.103,13.32,0.015,23.2
2019-05-25T07:29:00,42.805,6.029,0.009,0.009,-0.031,100.0,110.0,97.0,13.3,1505.3,325.5,-0.8,1.9,2470.073,13.32,0.012,45.0
2019-05-25T07:32:01,42.805,6.029,0.02,0.016,0.013,98.0,110.0,98.0,13.4,1505.3,327.5,-0.8,1.9,2470.082,13.32,0.025,51.3
2019-05-25T07:35:02,42.805,6.029,0.022,-0.001,0.036,99.0,111.0,95.0,13.4,1505.3,327.2,-0.8,1.9,2470.084,13.32,0.022,92.6
2019-05-25T07:38:03,42.805,6.029,-0.006,0.03,-0.021,99.0,110.0,96.0,13.3,1505.3,327.5,-0.8,1.9,2470.089,13.32,0.03,348.7
2019-05-25T07:41:04,42.805,6.029,-0.011,0.005,-0.008,100.0,109.0,96.0,13.4,1505.3,327.2,-0.8,1.9,2470.051,13.32,0.012,294.4
2019-05-25T07:44:05,42.805,6.029,0.015,0.0,-0.022,97.0,109.0,96.0,13.4,1505.3,327.5,-0.8,1.9,2470.103,13.32,0.015,90.0
2019-05-25T07:47:06,42.805,6.029,0.024,0.014,0.006,98.0,107.0,95.0,13.4,1505.3,326.7,-0.8,1.9,2470.092,13.32,0.027,59.7
2019-05-25T07:50:07,42.805,6.029,0.021,0.026,-0.014,96.0,109.0,96.0,13.4,1505.3,327.1,-0.8,1.9,2470.077,13.32,0.033,38.9
2019-05-25T07:53:08,42.805,6.029,0.041,0.013,0.002,97.0,108.0,96.0,13.4,1505.3,327.3,-0.8,1.9,2470.068,13.32,0.043,72.4
2019-05-25T07:56:09,42.805,6.029,0.027,0.003,0.026,98.0,107.0,97.0,13.3,1505.3,326.5,-0.8,1.9,2470.061,13.32,0.027,83.7
2019-05-25T07:59:10,42.805,6.029,0.038,0.013,0.009,98.0,108.0,96.0,13.4,1505.3,328.4,-0.8,1.9,2470.096,13.32,0.04,71.1
2019-05-25T08:02:11,42.805,6.029,0.027,0.031,0.005,99.0,108.0,96.0,13.3,1505.3,327.2,-0.8,1.9,2470.103,13.32,0.041,41.1
2019-05-25T08:05:12,42.805,6.029,0.009,0.018,-0.037,98.0,107.0,97.0,13.4,1505.3,327.9,-0.8,1.8,2470.125,13.32,0.02,26.6
2019-05-25T08:08:13,42.805,6.029,0.057,-0.003,0.009,98.0,109.0,96.0,13.4,1505.3,325.1,-0.8,1.9,2470.072,13.32,0.057,93.0
2019-05-25T08:11:14,42.805,6.029,0.024,-0.002,0.002,98.0,108.0,96.0,13.4,1505.3,326.6,-0.8,1.9,2470.119,13.32,0.024,94.8
2019-05-25T08:14:15,42.805,6.029,0.014,0.014,0.022,98.0,109.0,96.0,13.4,1505.3,325.7,-0.8,1.9,2470.069,13.32,0.019,45.0
2019-05-25T08:17:16,42.805,6.029,0.014,-0.002,-0.004,99.0,106.0,98.0,13.4,1505.3,327.4,-0.8,1.9,2470.088,13.32,0.014,98.1
2019-05-25T08:20:17,42.805,6.029,0.034,-0.004,-0.015,100.0,108.0,95.0,13.4,1505.3,324.6,-0.8,1.9,2470.123,13.32,0.034,96.7
2019-05-25T08:23:18,42.805,6.029,0.015,0.005,-0.039,99.0,107.0,96.0,13.4,1505.3,326.7,-0.8,1.9,2470.071,13.32,0.015,71.6
2019-05-25T08:26:19,42.805,6.029,0.015,0.0,-0.01,99.0,107.0,96.0,13.4,1505.3,326.1,-0.8,1.9,2470.134,13.32,0.015,90.0
2019-05-25T08:29:20,42.805,6.029,0.02,-0.013,-0.009,98.0,108.0,96.0,13.4,1505.3,323.1,-0.8,1.9,2470.12,13.32,0.023,123.0
2019-05-25T08:32:21,42.805,6.029,0.032,0.003,0.027,97.0,107.0,96.0,13.3,1505.3,327.7,-0.8,1.9,2470.088,13.32,0.032,84.6
2019-05-25T08:35:22,42.805,6.029,0.027,-0.009,-0.014,99.0,107.0,96.0,13.4,1505.3,328.6,-0.8,1.9,2470.084,13.32,0.028,108.4
2019-05-25T08:38:23,42.805,6.029,0.007,0.007,0.006,100.0,107.0,95.0,13.4,1505.3,328.2,-0.8,1.9,2470.08,13.32,0.009,45.0
2019-05-25T08:41:24,42.805,6.029,0.011,0.004,-0.03,99.0,106.0,96.0,13.4,1505.3,328.3,-0.8,1.9,2470.053,13.32,0.011,70.0
2019-05-25T08:44:25,42.805,6.029,0.045,0.006,0.023,97.0,107.0,96.0,13.3,1505.3,328.4,-0.7,1.9,2470.111,13.32,0.045,82.4
2019-05-25T08:47:26,42.805,6.029,0.015,-0.003,-0.006,98.0,108.0,96.0,13.4,1505.3,325.4,-0.8,1.8,2470.102,13.32,0.015,101.3
2019-05-25T08:50:27,42.805,6.029,0.032,0.007,-0.002,100.0,106.0,96.0,13.4,1505.3,326.0,-0.7,1.9,2470.065,13.32,0.032,77.7
2019-05-25T08:53:28,42.805,6.029,-0.016,-0.011,-0.056,99.0,106.0,96.0,13.4,1505.3,327.8,-0.8,1.9,2470.096,13.32,0.019,235.5
2019-05-25T08:56:29,42.805,6.029,0.011,-0.006,0.016,100.0,109.0,97.0,13.3,1505.3,328.1,-0.9,1.9,2470.099,13.32,0.012,118.6
2019-05-25T08:59:30,42.805,6.029,0.026,-0.001,-0.002,98.0,109.0,96.0,13.3,1505.3,326.5,-0.8,1.8,2470.116,13.32,0.026,92.2
2019-05-25T09:02:31,42.805,6.029,0.046,0.022,0.01,99.0,107.0,96.0,13.4,1505.3,324.6,-0.8,1.9,2470.078,13.32,0.05,64.4
2019-05-25T09:05:32,42.805,6.029,0.012,0.0,0.025,98.0,110.0,96.0,13.3,1505.3,325.3,-0.8,1.8,2470.116,13.32,0.012,90.0
2019-05-25T09:08:33,42.805,6.029,0.021,0.001,-0.021,98.0,107.0,97.0,13.4,1505.3,325.3,-0.8,1.9,2470.079,13.32,0.021,87.3
2019-05-25T09:11:34,42.805,6.029,0.012,0.008,-0.011,99.0,108.0,95.0,13.3,1505.3,324.4,-0.8,1.9,2470.084,13.32,0.014,56.3
2019-05-25T09:14:35,42.805,6.029,0.049,0.009,0.007,99.0,109.0,95.0,13.4,1505.3,326.3,-0.8,1.9,2470.103,13.32,0.049,79.6
2019-05-25T09:17:36,42.805,6.029,0.023,0.015,0.005,99.0,109.0,96.0,13.3,1505.3,326.7,-0.8,1.9,2470.074,13.32,0.027,56.9
2019-05-25T09:20:37,42.805,6.029,0.03,0.011,-0.004,100.0,108.0,96.0,13.3,1505.3,325.3,-0.8,1.8,2470.077,13.32,0.031,69.9
2019-05-25T09:23:38,42.805,6.029,0.021,0.007,-0.01,98.0,109.0,96.0,13.4,1505.3,325.5,-0.8,1.9,2470.097,13.32,0.022,71.6
2019-05-25T09:26:39,42.805,6.029,0.02,-0.015,0.001,98.0,107.0,97.0,13.4,1505.3,324.6,-0.8,1.9,2470.074,13.32,0.025,126.9
2019-05-25T09:29:40,42.805,6.029,0.012,0.006,-0.025,98.0,109.0,96.0,13.4,1505.3,325.3,-0.8,1.9,2470.088,13.32,0.013,63.4
2019-05-25T09:32:41,42.805,6.029,0.01,0.007,0.011,98.0,106.0,96.0,13.4,1505.3,326.5,-0.8,1.8,2470.077,13.32,0.012,55.0
2019-05-25T09:35:42,42.805,6.029,0.043,-0.013,-0.004,99.0,108.0,97.0,13.3,1505.3,326.5,-0.8,1.8,2470.06,13.32,0.044,106.8
2019-05-25T09:38:43,42.805,6.029,0.024,0.006,-0.004,99.0,107.0,96.0,13.3,1505.3,324.2,-0.8,1.9,2470.103,13.32,0.024,76.0
2019-05-25T09:41:44,42.805,6.029,0.033,-0.001,0.0,100.0,108.0,96.0,13.3,1505.3,323.1,-0.8,1.9,2470.076,13.32,0.033,91.7